Wind_Speed
40 39 38 40 41 41 42 45 44 47 46 48 48 46 47 46 46 49 49 50 51 54 58 61 64 65 66 71 67 71 69 64 68 71 74 76 74 77 77 72 74 75 79 76 71
41 42 42 46 47 48 48 48 53 52 52 52 52 51 49 50 52 55 57 59 59 61 63 65 68 71 71 68 74 72 70 70 74 75 79 77 80 77 82 79 75 77 78 77 78
48 48 49 51 52 52 54 56 58 55 56 57 57 58 58 59 59 60 62 65 65 67 70 73 70 68 68 71 69 65 70 75 76 80 82 80 82 83 79 81 76 78 79 80 80
52 53 54 55 56 57 58 61 60 61 61 63 66 66 66 65 65 65 67 68 70 73 73 70 71 69 71 71 68 69 74 77 77 82 81 80 79 77 74 74 73 76 78 81 82
57 59 60 60 61 62 63 64 65 67 69 70 71 72 70 72 70 72 72 70 71 73 74 76 76 70 70 68 76 76 76 78 79 80 79 73 69 63 67 71 70 74 77 77 82
65 66 67 68 69 70 70 71 72 73 75 77 77 78 79 79 78 77 77 77 78 80 84 84 77 72 70 76 79 83 83 78 76 79 70 62 60 56 60 61 67 70 73 77 76
73 73 74 75 76 77 78 78 79 80 81 82 82 83 84 84 83 83 83 84 83 85 86 78 69 72 78 80 87 87 82 77 73 74 62 59 59 59 61 61 62 66 68 72 72
78 79 79 80 82 82 82 83 84 85 85 88 85 85 86 85 86 87 89 86 84 88 81 79 79 81 89 89 88 88 80 74 70 64 56 55 55 56 54 53 55 59 60 62 70
83 83 84 85 86 87 87 88 89 90 88 89 88 87 85 89 91 87 86 82 81 82 81 80 86 93 93 94 91 87 71 69 64 59 53 49 50 50 48 48 52 52 53 58 64
86 88 90 90 89 90 89 88 88 88 89 91 89 89 87 89 87 82 81 77 82 82 84 91 94 97 96 98 86 73 61 65 58 55 48 46 45 44 44 45 48 49 49 54 57
90 91 92 92 93 89 91 90 91 88 87 90 93 94 91 86 86 87 84 85 84 87 93 94 96 97 95 89 73 59 56 56 51 48 46 43 43 40 41 41 41 42 45 46 52
90 90 90 89 92 92 91 93 97 95 84 87 90 92 92 89 87 88 89 88 91 92 95 97 96 96 95 73 59 54 53 47 45 42 39 36 33 32 32 34 34 38 42 46 51
93 94 94 92 92 93 94 93 95 98 94 94 98 98 97 96 94 94 94 96 96 98 96 98 88 88 76 60 54 49 46 42 40 36 34 30 23 26 30 32 35 39 42 46 50
103 103 99 97 98 98 99 101 105 108 104 101 102 104 104 104 102 104 101 97 97 95 94 74 81 73 62 53 49 44 40 36 34 30 28 27 28 32 34 34 38 41 44 52 60
109 108 107 104 106 105 107 109 111 111 112 109 106 109 110 107 110 112 102 96 95 88 66 67 69 61 55 46 43 37 35 30 29 27 27 28 32 33 34 37 40 45 51 58 64
114 113 115 114 114 113 114 115 116 117 118 117 112 113 111 109 101 96 89 87 77 66 56 64 59 53 46 41 37 35 31 28 26 27 29 31 34 35 38 42 46 49 54 59 63
121 123 123 123 119 120 118 120 117 117 121 115 111 100 95 87 85 79 76 66 54 48 54 56 53 44 38 35 33 32 29 26 26 28 30 30 32 35 38 42 47 52 56 58 61
127 126 127 127 125 123 120 119 116 109 105 96 88 81 76 75 68 65 62 56 43 43 49 49 45 35 32 31 31 29 27 27 28 30 31 31 32 32 38 43 47 51 55 58 56
127 124 125 121 119 116 115 110 103 93 88 79 72 68 63 63 59 55 53 42 39 41 43 41 36 31 30 29 28 28 28 30 29 29 30 32 31 33 38 43 47 51 52 49 46
115 114 119 113 107 101 96 92 88 87 75 71 64 60 57 55 54 53 46 38 39 39 38 34 30 28 27 26 26 28 28 28 30 31 31 30 32 35 41 44 48 47 45 42 40
106 107 104 102 97 94 86 85 82 77 70 66 60 55 51 50 48 43 40 36 37 36 32 29 25 26 25 25 27 27 27 28 29 30 30 30 33 37 41 46 45 43 41 38 34
102 100 97 93 90 85 79 76 73 68 63 58 51 48 49 48 44 41 38 35 34 31 30 24 24 23 25 24 25 26 27 28 28 28 29 31 34 38 40 41 41 37 35 33 26
95 94 93 92 86 82 79 73 69 65 57 52 48 43 41 40 37 36 35 32 32 29 25 22 21 23 23 22 22 25 27 28 29 30 30 33 35 35 36 37 35 33 31 25 15
88 87 88 82 81 77 74 69 64 59 54 50 45 42 40 38 36 35 34 30 27 26 23 20 21 21 21 20 19 22 26 28 29 28 29 29 29 31 33 33 30 29 25 16 8
79 77 75 74 72 70 69 65 59 53 49 44 41 37 35 33 34 33 30 28 26 24 21 20 20 19 20 18 19 22 23 24 23 23 22 23 26 28 29 29 27 25 19 8 15
69 69 68 65 64 63 62 58 52 48 44 41 37 36 34 32 34 33 29 27 25 21 20 20 19 19 18 17 19 19 20 20 19 19 20 21 23 25 26 26 22 22 11 8 26
63 61 60 57 60 57 55 51 48 45 42 39 38 35 33 32 32 30 28 26 22 20 20 19 19 18 17 17 18 17 18 18 17 16 17 17 19 20 24 22 18 18 8 13 35
Wind_Direction
281 284 286 293 292 293 296 299 299 301 296 294 295 297 295 296 295 291 288 289 289 291 293 294 295 295 299 303 299 297 294 294 292 285 283 284 282 282 280 273 263 258 256 255 250
282 282 283 288 292 294 294 294 298 297 293 294 294 294 294 294 294 290 291 293 295 294 293 294 294 295 293 298 298 295 291 293 291 287 283 281 282 280 277 275 266 256 255 252 250
284 285 285 289 290 291 291 293 295 294 296 296 295 294 291 292 293 292 291 291 293 294 295 296 296 293 293 296 299 299 298 294 293 288 285 283 281 281 274 270 264 255 254 251 250
284 285 286 287 287 290 291 292 292 293 293 294 295 295 294 295 294 293 297 297 295 295 295 297 296 293 293 297 297 302 301 298 293 291 287 286 283 277 269 265 263 255 254 250 248
280 281 282 283 284 285 286 287 289 290 292 293 293 294 294 293 293 295 296 297 298 299 300 300 298 299 299 295 301 304 302 300 297 293 291 287 282 276 265 262 259 256 252 252 251
277 279 279 280 282 284 285 287 288 289 290 291 293 293 295 295 294 294 296 297 299 301 302 303 302 300 298 300 303 304 301 299 298 298 291 284 280 277 270 266 263 262 258 255 251
278 278 279 281 283 284 284 285 287 288 289 290 292 293 292 293 293 293 295 295 296 297 300 299 298 298 301 299 301 303 301 297 299 297 288 280 277 275 271 266 262 260 258 255 248
280 280 280 280 281 281 283 285 285 285 285 287 289 291 292 292 292 293 294 295 296 297 296 295 299 299 300 303 304 304 300 295 300 294 285 280 278 274 271 268 264 259 258 254 251
276 276 277 277 279 279 279 281 282 284 286 286 288 289 291 293 292 293 295 296 295 295 295 297 299 301 302 304 304 303 297 296 299 291 287 283 277 273 272 269 266 263 259 255 252
273 276 277 278 277 278 278 279 282 284 284 284 285 286 287 291 291 292 294 294 295 292 294 297 300 302 303 306 304 298 297 298 295 290 287 283 278 275 271 267 264 263 259 258 257
277 276 276 276 277 279 283 278 281 281 282 283 285 283 287 289 288 289 291 293 294 293 296 299 300 299 300 302 301 293 296 296 292 288 287 284 279 273 269 268 268 265 259 258 258
277 275 276 277 277 279 281 278 278 280 279 284 283 284 286 289 290 291 292 293 293 294 297 298 300 295 300 299 293 295 296 292 291 289 287 282 274 271 270 269 267 264 262 262 265
276 278 275 275 276 279 277 278 278 278 278 279 282 286 288 288 288 289 291 292 294 296 298 299 293 293 296 295 292 295 293 291 288 284 279 273 267 270 269 266 265 265 267 268 268
276 276 277 276 277 280 279 279 279 281 282 283 284 287 288 288 290 288 289 291 294 296 299 294 288 294 294 291 292 292 290 289 285 283 276 268 266 265 268 271 270 270 269 270 271
275 274 274 275 277 279 278 279 280 280 282 283 286 287 288 289 290 291 290 291 291 298 294 287 289 291 290 289 288 284 286 281 275 270 265 262 266 268 272 271 270 274 275 276 276
272 273 274 274 276 276 276 279 279 281 282 284 287 290 290 291 289 289 290 291 293 292 287 284 289 287 286 285 280 279 277 270 266 265 266 269 273 275 275 277 280 282 283 286 289
271 272 273 276 276 277 278 280 282 283 282 287 289 290 289 287 288 288 288 288 287 286 281 284 283 282 280 278 275 275 268 262 264 268 271 276 280 282 286 287 288 290 292 294 293
272 271 273 276 279 280 281 281 286 286 286 287 289 289 288 286 289 291 289 286 285 281 278 280 279 276 274 272 269 268 257 257 265 272 274 278 281 287 288 289 290 295 298 300 304
273 273 275 277 279 280 282 284 284 286 288 288 288 289 288 287 287 288 289 283 280 276 276 276 272 273 271 266 260 254 251 256 263 271 274 279 286 289 291 291 297 299 301 305 311
273 274 276 276 279 280 281 282 284 285 287 288 287 288 286 284 282 282 284 279 275 273 273 269 268 267 264 256 248 243 249 258 265 271 279 286 291 291 292 298 301 303 312 317 318
272 272 274 276 276 278 279 279 282 285 286 285 285 284 281 280 278 276 276 273 272 273 267 265 265 261 256 250 242 241 245 254 262 270 279 286 286 290 299 304 306 312 321 326 325
269 271 273 275 276 276 276 277 282 283 282 283 283 281 278 273 273 271 268 268 266 263 261 258 257 254 253 246 239 235 240 249 259 269 276 282 290 297 303 304 309 321 328 333 338
267 269 271 272 273 273 275 275 278 279 280 279 279 277 271 268 267 266 264 263 259 255 253 250 251 251 248 241 236 233 241 248 255 263 273 284 293 300 303 307 316 334 339 339 2
267 268 269 270 270 271 272 274 276 276 276 275 272 272 264 261 262 262 259 260 255 252 249 245 251 246 241 236 235 236 241 247 257 268 278 287 294 299 303 311 328 337 349 360 56
266 266 267 268 269 269 272 273 273 273 273 270 269 262 257 254 255 254 251 250 248 247 242 246 244 237 235 229 230 237 243 250 262 269 279 288 295 302 306 317 341 342 357 42 117
264 263 264 266 267 267 270 270 270 269 267 265 258 252 249 248 247 248 244 240 243 240 237 238 237 228 228 226 228 233 238 243 254 270 279 290 300 301 310 325 348 350 20 112 132
262 262 263 260 261 262 263 265 265 264 262 257 252 243 239 240 241 240 233 234 235 232 229 228 229 225 223 222 229 230 237 246 256 268 282 295 297 306 314 332 354 2 49 139 143
Height
10781 10778 10777 10776 10774 10772 10770 10767 10764 10762 10759 10757 10754 10752 10750 10748 10745 10740 10739 10736 10733 10729 10726 10723 10718 10714 10711 10706 10702 10698 10695 10690 10685 10678 10675 10673 10672 10666 10664 10665 10666 10664 10666 10671 10676
10773 10771 10769 10767 10765 10763 10760 10757 10755 10752 10749 10747 10745 10742 10741 10738 10736 10730 10728 10724 10722 10718 10714 10710 10706 10701 10698 10692 10686 10681 10677 10675 10666 10661 10654 10654 10648 10652 10640 10641 10643 10644 10646 10650 10651
10764 10761 10759 10756 10754 10753 10750 10747 10744 10741 10738 10736 10734 10731 10729 10727 10723 10720 10716 10712 10709 10704 10700 10696 10691 10687 10681 10678 10670 10666 10659 10655 10649 10639 10633 10633 10626 10625 10620 10618 10619 10620 10622 10627 10631
10752 10750 10748 10745 10743 10741 10739 10736 10733 10730 10727 10724 10722 10719 10716 10713 10710 10707 10702 10699 10694 10689 10685 10681 10676 10672 10667 10662 10656 10650 10641 10631 10629 10617 10611 10607 10603 10599 10598 10596 10597 10599 10604 10607 10609
10741 10738 10735 10734 10731 10729 10727 10724 10720 10717 10714 10712 10709 10705 10703 10698 10696 10691 10689 10684 10679 10674 10670 10664 10660 10655 10649 10644 10639 10632 10622 10612 10608 10597 10589 10584 10578 10579 10576 10576 10578 10579 10584 10589 10591
10728 10725 10723 10720 10718 10716 10713 10711 10707 10704 10700 10697 10694 10692 10688 10683 10681 10678 10673 10668 10663 10657 10652 10646 10642 10637 10632 10627 10620 10614 10604 10595 10586 10576 10569 10564 10560 10562 10556 10559 10559 10564 10567 10570 10573
10714 10712 10710 10707 10704 10701 10698 10696 10693 10689 10685 10681 10679 10677 10673 10668 10665 10661 10657 10651 10646 10641 10636 10628 10625 10620 10614 10608 10600 10591 10585 10573 10568 10557 10553 10546 10545 10544 10541 10540 10544 10545 10548 10551 10552
10697 10695 10693 10690 10687 10686 10683 10680 10677 10674 10668 10665 10662 10659 10657 10652 10648 10644 10639 10635 10629 10624 10619 10613 10607 10601 10593 10589 10581 10570 10563 10555 10550 10539 10536 10533 10527 10525 10526 10527 10527 10529 10531 10534 10537
10679 10677 10675 10673 10670 10667 10666 10663 10659 10656 10651 10645 10645 10640 10643 10634 10628 10626 10621 10618 10613 10606 10601 10596 10588 10579 10573 10567 10560 10551 10544 10537 10533 10522 10519 10518 10514 10513 10513 10514 10515 10516 10518 10521 10523
10659 10656 10655 10654 10652 10648 10647 10646 10640 10639 10634 10627 10625 10622 10623 10617 10611 10608 10604 10601 10596 10591 10585 10579 10571 10559 10552 10546 10539 10531 10528 10519 10516 10506 10508 10504 10502 10503 10502 10501 10503 10506 10508 10509 10513
10638 10636 10634 10633 10630 10628 10628 10626 10621 10623 10618 10610 10603 10602 10601 10601 10594 10590 10588 10584 10579 10575 10569 10558 10553 10539 10533 10529 10520 10516 10513 10507 10502 10497 10494 10494 10491 10492 10491 10492 10496 10499 10498 10501 10501
10617 10614 10613 10611 10610 10609 10607 10603 10600 10601 10609 10592 10585 10579 10580 10581 10576 10570 10570 10567 10560 10557 10549 10544 10534 10518 10516 10513 10507 10501 10498 10494 10490 10487 10485 10485 10484 10485 10486 10488 10490 10490 10490 10491 10490
10594 10592 10592 10591 10589 10589 10585 10581 10579 10577 10586 10585 10568 10561 10559 10557 10553 10551 10551 10547 10543 10536 10530 10525 10511 10503 10501 10498 10493 10489 10485 10482 10480 10478 10478 10479 10480 10480 10480 10481 10482 10482 10483 10481 10479
10569 10568 10568 10569 10569 10567 10564 10558 10554 10549 10558 10561 10555 10546 10539 10533 10530 10526 10528 10528 10522 10516 10511 10500 10488 10489 10487 10484 10479 10476 10474 10473 10472 10472 10473 10473 10474 10472 10473 10476 10475 10475 10474 10469 10464
10544 10544 10544 10544 10546 10544 10537 10537 10530 10525 10527 10533 10534 10528 10521 10515 10508 10501 10503 10502 10501 10497 10492 10480 10476 10476 10473 10472 10469 10466 10466 10466 10466 10466 10467 10467 10466 10467 10468 10468 10467 10465 10462 10457 10451
10519 10517 10517 10519 10520 10520 10516 10515 10509 10504 10501 10505 10508 10505 10497 10492 10483 10482 10481 10480 10480 10480 10473 10465 10464 10463 10462 10461 10459 10457 10459 10459 10460 10460 10461 10462 10462 10462 10462 10461 10459 10456 10451 10444 10437
10490 10490 10490 10490 10493 10494 10494 10491 10488 10482 10479 10485 10481 10476 10473 10467 10462 10464 10463 10464 10465 10463 10456 10453 10452 10453 10451 10450 10450 10450 10451 10452 10454 10455 10455 10457 10457 10457 10456 10454 10449 10442 10435 10431 10424
10461 10461 10462 10463 10466 10468 10471 10465 10463 10462 10461 10458 10458 10453 10450 10446 10444 10444 10446 10445 10449 10446 10443 10442 10440 10442 10441 10441 10441 10442 10444 10446 10447 10448 10449 10450 10451 10451 10449 10444 10440 10434 10426 10419 10412
10433 10436 10436 10439 10441 10444 10446 10442 10440 10439 10442 10439 10437 10436 10432 10427 10429 10432 10430 10432 10433 10432 10433 10432 10431 10431 10432 10433 10434 10434 10437 10439 10441 10443 10443 10444 10445 10445 10442 10437 10432 10425 10419 10412 10406
10408 10409 10410 10414 10419 10420 10423 10420 10420 10418 10424 10419 10421 10420 10417 10415 10417 10418 10419 10420 10419 10421 10422 10422 10422 10423 10424 10425 10427 10428 10431 10434 10436 10438 10439 10440 10439 10437 10433 10429 10424 10417 10412 10404 10394
10383 10385 10387 10392 10397 10401 10402 10401 10401 10402 10405 10402 10404 10405 10403 10403 10404 10406 10406 10407 10408 10410 10412 10413 10413 10415 10417 10418 10420 10423 10426 10429 10431 10433 10434 10433 10433 10431 10428 10422 10416 10411 10405 10397 10386
10361 10363 10365 10370 10376 10380 10382 10382 10384 10387 10388 10387 10388 10389 10388 10390 10392 10392 10393 10395 10399 10402 10404 10405 10406 10408 10411 10412 10414 10418 10421 10424 10426 10428 10429 10428 10428 10424 10421 10415 10410 10406 10401 10391 10384
10338 10340 10342 10349 10355 10358 10360 10364 10367 10369 10372 10373 10373 10375 10377 10377 10379 10380 10383 10388 10391 10393 10396 10398 10400 10402 10404 10407 10410 10413 10417 10419 10421 10423 10423 10424 10423 10418 10414 10409 10406 10402 10396 10388 10384
10316 10319 10321 10329 10334 10338 10340 10345 10350 10352 10356 10357 10359 10363 10365 10366 10367 10370 10374 10379 10382 10385 10388 10391 10394 10396 10398 10402 10405 10408 10411 10414 10416 10419 10419 10419 10417 10413 10408 10406 10403 10398 10393 10388 10386
10294 10298 10303 10310 10314 10318 10322 10328 10333 10337 10340 10342 10346 10350 10352 10355 10357 10361 10367 10371 10374 10377 10381 10384 10387 10390 10394 10397 10400 10404 10407 10410 10413 10414 10415 10414 10412 10408 10404 10402 10401 10395 10392 10389 10389
10272 10278 10286 10293 10295 10300 10305 10311 10318 10322 10324 10328 10332 10337 10341 10345 10348 10354 10360 10363 10366 10370 10375 10378 10381 10385 10389 10393 10396 10401 10403 10406 10409 10410 10410 10410 10407 10404 10400 10400 10399 10393 10390 10390 10388
10252 10260 10269 10276 10278 10284 10290 10297 10302 10306 10310 10315 10320 10325 10330 10336 10341 10347 10352 10355 10359 10364 10369 10373 10376 10380 10384 10389 10392 10396 10399 10403 10405 10406 10406 10406 10404 10401 10396 10397 10397 10392 10388 10389 10389